Weather Service Report


900 
ASUS44 KLIX 061601
RWRLIX
NEW ORLEANS REGIONAL WEATHER ROUNDUP
NATIONAL WEATHER SERVICE NEW ORLEANS LA
1000 AM CST FRI MAR 06 2015

NOTE: "FAIR" INDICATES FEW OR NO CLOUDS BELOW 12,000 FEET WITH NO
      SIGNIFICANT WEATHER AND/OR OBSTRUCTIONS TO VISIBILITY.
      SKY/WX - SKY CONDITION AND SIGNIFICANT WEATHER.
      TMP - AIR TEMPERATURE.     DP    - DEWPOINT TEMPERATURE.
      RH  - RELATIVE HUMIDITY.   PRES  - PRESSURE.
      HI  - HEAT INDEX.          WCI   - WIND CHILL INDEX.

*  THESE STATIONS ARE NOT NWS OR FAA STATIONS AND ARE NOT UNDER
   NWS QUALITY CONTROL. 

LAZ038-040-048-061>063-065>067-069-061700-
SOUTHEAST LOUISIANA
  
CITY           SKY/WX    TMP DP  RH WIND       PRES   REMARKS
N.O. AUDUBON   NOT AVBL                                               
N.O. INTL ARPT PTSUNNY   39  23  52 N17G25    30.51S WCI  30          
N.O. LAKEFRONT SUNNY     42  22  44 N18       30.52R                  
SLIDELL        SUNNY     40  18  41 N10G21    30.50S WCI  33          
BATON ROUGE    SUNNY     37  14  38 N9        30.56S WCI  30          
BOOTHVILLE     SUNNY     40  29  64 N13G22    30.47  WCI  32          
BELLE CHASSE   NOT AVBL                                               
BOGALUSA*        N/A     39  20  47 N12       30.55R WCI  32          
GALLIANO*      SUNNY     44  27  52 N17       30.48F                  
NEW ROADS*     NOT AVBL                                               
GONZALES*      NOT AVBL                                               
HAMMOND*       NOT AVBL                                               
HOUMA*         MOSUNNY   39  25  56 N12G21    30.50S WCI  32          
PORT FOURCHON*   N/A     39  27  60 N15       30.51R WCI  31          

$$

MSZ070-080>082-061700-
SOUTHERN MISSISSIPPI
  
CITY           SKY/WX    TMP DP  RH WIND       PRES   REMARKS
MCCOMB         SUNNY     35  12  38 N14       30.54F WCI  26          
GULFPORT       SUNNY     40  17  39 N17       30.48R WCI  31          
BILOXI         SUNNY     40  19  41 N15       30.47R WCI  32          
PASCAGOULA     SUNNY     41  20  43 N17G24    30.46S                  
STENNIS ARPT*  SUNNY     39  12  33 N14G23    30.50S WCI  31          

$$

COASTAL OBSERVATIONS
LAKE AND NEARSHORE STATIONS
  
STATION/POSITION TIME  TEMP    WIND        PRES    WAVE
                       AIR SEA DIR/SP/G            HT/PER
                 (UTC) (F)     (DEG/KT/KT) (MB)    (FT/S)
PASCAGOULA       1523   35      10/ 12/ 18 1030.9
WAVELAND YACHT   1523   34 46  360/ 17/ 21 1031.8
GRAND ISLE       1523   37 54   20/ 15/ 19 1032.2
SOUTHWEST PASS   1523   41 42   10/ 19/ 21 1031.4
NEW CANAL        1523   35      10/ 14/ 18 1033.5
SHELL BEACH      1523   34 51  360/ 18/ 21 1032.1

OFFSHORE STATIONS
  
STATION/POSITION TIME  TEMP    WIND        PRES    WAVE
                       AIR SEA DIR/SP/G            HT/PER
                 (UTC) (F)     (DEG/KT/KT) (MB)    (FT/S)
64 S DAUPHIN ISL 1509   43 67   20/ 19/ 25 1030.2    6/ 7

$$



902 
ASUS44 KLIX 061601
RWRLA 
LOUISIANA WEATHER ROUNDUP
NATIONAL WEATHER SERVICE NEW ORLEANS LA
1000 AM CST FRI MAR 06 2015

NOTE: "FAIR" INDICATES FEW OR NO CLOUDS BELOW 12,000 FEET WITH NO
      SIGNIFICANT WEATHER AND/OR OBSTRUCTIONS TO VISIBILITY.
      SKY/WX - SKY CONDITION AND SIGNIFICANT WEATHER.
      TMP - AIR TEMPERATURE.    DP   - DEWPOINT TEMPERATURE.
      RH  - RELATIVE HUMIDITY.  PRES - PRESSURE.
      HX  - HEAT INDEX.         WCI  - WIND CHILL INDEX.

*  THESE STATIONS ARE NOT NWS OR FAA STATIONS AND ARE NOT UNDER
   NWS QUALITY CONTROL.

LAZ040-048-061>063-065-066-069-061700-
SOUTHEAST LOUISIANA
  
CITY           SKY/WX    TMP DP  RH WIND       PRES   REMARKS
N.O. AUDUBON   NOT AVBL                                               
N.O. INTL ARPT PTSUNNY   39  23  52 N17G25    30.51S WCI  30          
N.O. LAKEFRONT SUNNY     42  22  44 N18       30.52R                  
SLIDELL        SUNNY     40  18  41 N10G21    30.50S WCI  33          
BATON ROUGE    SUNNY     37  14  38 N9        30.56S WCI  30          
BOOTHVILLE     SUNNY     40  29  64 N13G22    30.47  WCI  32          
BELLE CHASSE   NOT AVBL                                               
BOGALUSA*        N/A     39  20  47 N12       30.55R WCI  32          
GALLIANO*      SUNNY     44  27  52 N17       30.48F                  
NEW ROADS*     NOT AVBL                                               
GONZALES*      NOT AVBL                                               
HAMMOND*       NOT AVBL                                               
HOUMA*         MOSUNNY   39  25  56 N12G21    30.50S WCI  32          
PORT FOURCHON*   N/A     39  27  60 N15       30.51R WCI  31          

$$

LAZ041-044-053-054-061700-
SOUTHWEST LOUISIANA
  
CITY           SKY/WX    TMP DP  RH WIND       PRES   REMARKS
LAKE CHARLES   SUNNY     39  17  41 NE17      30.58S WCI  30          
LAFAYETTE      SUNNY     38  12  34 NE17G26   30.57R WCI  28          
PATTERSON      SUNNY     37  18  44 N16       30.53S WCI  28          
SALT POINT       N/A     40  17  39 N9G17     30.50  WCI  34          
NEW IBERIA     NOT AVBL                                               
CHENAULT AIRPK SUNNY     37  16  41 NE17G23   30.59  WCI  28          

$$

LAZ027-028-061700-
CENTRAL LOUISIANA
  
CITY           SKY/WX    TMP DP  RH WIND       PRES   REMARKS
FORT POLK      SUNNY     37  13  37 NE12G20   30.58F WCI  29          
ALEXANDRIA INT SUNNY     37  17  44 NE8       30.61S WCI  31          
ALEXANDRIA     SUNNY     39  16  39 E10G16    30.60S WCI  32          

$$

LAZ001-002-061700-
NORTHWEST LOUISIANA
  
CITY           SKY/WX    TMP DP  RH WIND       PRES   REMARKS
SHREVEPORT     MOSUNNY   39  15  37 VRB5      30.61F                  
BARKSDALE AFB  SUNNY     38  15  39 E2        30.62F                  
DTN SHREVEPORT SUNNY     37  12  35 E6        30.63S WCI  32          

$$

LAZ014-016-061700-
NORTHEAST LOUISIANA
  
CITY           SKY/WX    TMP DP  RH WIND       PRES   REMARKS
MONROE         SUNNY     34  19  54 NE9       30.65S WCI  27          
TALLULAH       SUNNY     35  17  47 NE9       30.63S WCI  28          

$$


Return to Home page


Western Regional Climate Center, wrcc@dri.edu